Location: *
(55.0718°S, 140.9772°W)
Time: 20:10:56
(UTC+00:00)

Daily predictions for brighter satellites

Satellite Brightness Start Highest point End
(mag) Time Altitude Azimuth Time Altitude Azimuth Time Altitude Azimuth
COSMOS 2455 3.5 12:07:40 52° SE 12:07:40 52° SE 12:12:11 10° SE
SL-16 R/B 4.2 12:04:26 10° SSE 12:09:45 28° E 12:13:04 18° NE
Cosmos 2279 Rocket 4.2 12:16:00 65° ESE 12:16:00 65° ESE 12:21:44 10° SSE
Cosmos 2297 Rocket 3.6 12:18:27 31° S 12:18:27 31° S 12:22:16 10° SSE
SeaSat 1 3.6 12:14:13 10° ENE 12:18:51 41° SE 12:19:11 40° SSE
ATLAS CENTAUR R/B 3.8 12:20:59 21° E 12:20:59 21° E 12:23:08 10° ESE
Cosmos 2219 4.0 12:24:34 47° S 12:24:34 47° S 12:28:47 10° SSE
USA 234 3.2 12:16:53 10° ESE 12:23:30 81° S 12:23:30 81° S
Cosmos 1833 Rocket 4.3 12:25:17 10° SSW 12:30:26 33° SE 12:35:33 10° E
H-2A R/B 2.8 12:34:44 50° S 12:34:44 50° S 12:38:48 10° SSW
Geosat 4.5 12:35:20 10° SE 12:39:38 59° ESE 12:39:38 59° ESE
Cosmos 2082 Rocket 4.3 12:39:15 10° SSW 12:43:38 22° SSE 12:48:00 10° ESE
Cosmos 2082 4.0 12:46:16 58° S 12:46:16 58° S 12:51:09 10° SSE
Cosmos 2263 Rocket 2.5 12:53:16 56° SSW 12:53:16 56° SSW 12:58:13 10° SSE
In-Cosmos 22 4.4 12:52:37 10° S 12:58:02 63° ESE 13:03:20 10° NNE
Cosmos 1726 4.3 13:02:13 20° SSE 13:02:13 20° SSE 13:03:29 10° SSE
NOSS 3-3 (A) 3.9 13:01:44 47° SW 13:03:50 89° SE 13:09:42 10° NE
Cosmos 1655 Rocket 4.0 12:57:25 10° S 13:03:55 88° E 13:10:17 10° N
Cosmos 1500 Rocket 4.3 13:04:38 48° ENE 13:05:02 49° E 13:09:19 10° SSE
Cosmos 2266 Rocket 3.9 13:01:30 10° SSW 13:07:58 69° W 13:08:37 64° NW
NOSS 3-3 (C) 3.9 13:08:00 42° SW 13:10:26 88° NW 13:16:15 10° NE
Cosmos 2180 Rocket 4.3 13:09:49 67° WNW 13:10:30 74° WSW 13:16:46 10° S
Meteor 1-13 Rocket 4.1 13:05:04 10° SSW 13:10:44 90° W 13:16:19 10° NNE
CZ-2C R/B 2.6 13:06:26 10° SSE 13:12:06 77° WSW 13:12:31 73° WNW
Cosmos 1844 4.3 13:10:51 34° N 13:13:03 53° ENE 13:18:38 10° SE
ARGOS 3.2 13:12:38 10° NNE 13:18:03 82° ESE 13:23:33 10° SSW
ARIANE 5 R/B 2.4 13:18:21 10° NNE 13:23:32 82° WNW 13:28:42 10° SSW
Cosmos 1269 Rocket 3.9 13:18:54 10° SSW 13:24:19 86° WNW 13:29:41 10° NNE
SL-08 ROCKET BODY 4.3 13:18:38 10° SSW 13:24:33 60° W 13:25:01 58° WNW
Cosmos 2285 Rocket 4.2 13:20:41 10° SSW 13:27:14 73° ESE 13:33:41 10° NE
Meteor 1-14 Rocket 4.2 13:26:16 56° NW 13:27:26 70° WSW 13:33:29 10° SSE
CZ-4C R/B 2.8 13:25:54 41° NW 13:29:00 87° NE 13:35:41 10° SE
Cosmos 2227 Rocket 3.5 13:31:47 24° SW 13:32:34 25° SSW 13:37:14 10° SSE
Sich 1 3.2 13:32:05 45° N 13:33:23 73° E 13:37:51 10° SSE
Cosmos 1607 4.4 13:29:09 19° SW 13:33:34 59° SE 13:39:39 10° ENE
UNK 3.7 13:30:58 10° SSE 13:35:40 80° ENE 13:37:16 41° N
Cosmos 1743 Rocket 3.6 13:37:11 41° N 13:38:41 79° E 13:43:12 10° SSE
Cosmos 1844 Rocket 2.6 13:37:21 40° NNW 13:39:29 84° ENE 13:45:12 10° SE
ERS-1 4.4 13:34:31 10° N 13:39:41 70° WNW 13:44:58 10° SSW
Okean 3 Rocket 4.5 13:42:23 35° SW 13:42:23 35° SW 13:45:36 10° S
NOAA 12 4.0 13:38:51 10° NNE 13:44:09 78° WNW 13:49:32 10° SSW
Cosmos 1125 Rocket 3.8 13:46:54 45° W 13:47:41 48° SW 13:52:55 10° SSE
CENTAUR R/B 2.9 13:44:15 27° NW 13:48:54 75° NE 13:55:22 10° SE
Cosmos 1140 Rocket 3.7 13:44:31 10° SSW 13:49:44 71° ESE 13:54:54 10° NE
COSMOS 2455 3.7 13:50:48 29° WSW 13:52:44 36° SSW 13:58:18 10° SE
Cosmos 1733 3.1 13:51:49 47° N 13:52:46 78° E 13:56:27 10° SSE
SL-16 R/B 2.5 13:47:39 10° SSE 13:53:55 73° WSW 13:58:09 22° NNW
Cosmos 1818 3.6 13:50:27 22° SW 13:54:04 82° SE 13:59:28 10° NE
SeaSat 1 2.5 13:51:24 10° NNE 13:56:14 52° WNW 13:58:55 25° SW
Cosmos 1536 3.2 13:56:49 44° SW 13:56:49 44° SW 14:00:11 10° S
Cosmos 2227 4.4 13:54:39 39° W 13:56:26 54° SW 14:02:07 10° SSE
ATLAS CENTAUR R/B 1.4 13:56:07 54° WNW 13:57:02 73° SW 14:01:25 10° SE
Cosmos 407 Rocket 3.9 13:55:09 10° SSW 14:00:20 63° ESE 14:05:31 10° NE
IRS-1C 4.4 13:57:17 10° NNW 14:02:22 42° W 14:07:31 10° SSW
Cosmos 2297 Rocket 4.1 14:00:15 14° SW 14:02:49 18° SSW 14:06:39 10° SSE
Meteor 1-11 Rocket 3.7 13:59:06 20° NNW 14:03:04 69° WSW 14:08:55 10° SSE
SL-19 R/B 4.3 13:58:25 10° N 14:03:38 52° W 14:09:08 10° SSW
Cosmos 1023 Rocket 4.4 14:00:06 10° SSW 14:05:18 88° WNW 14:10:27 10° NNE
CZ-2D R/B 3.6 14:02:05 10° N 14:06:25 56° W 14:10:47 10° SSW
USA 234 3.3 13:59:51 10° E 14:06:29 81° S 14:10:50 24° WSW
Cosmos 1805 3.6 14:03:11 10° N 14:06:57 64° E 14:10:45 10° SSE
Cosmos 1862 Rocket 3.5 14:05:52 10° SSW 14:10:27 83° W 14:15:00 10° N
PSLV R/B 3.4 14:07:14 10° NNE 14:11:25 86° WNW 14:15:41 10° SSW
Cosmos 2150 Rocket 4.3 14:10:39 32° WNW 14:12:52 50° SW 14:18:17 10° SSE
H-2A R/B 3.6 14:15:19 19° WSW 14:15:19 19° WSW 14:17:38 10° SW
Cosmos 2298 Rocket 4.3 14:11:16 32° WNW 14:13:23 49° SW 14:18:38 10° SSE
Cosmos 1833 Rocket 2.6 14:09:11 10° SW 14:14:55 77° WNW 14:20:36 10° NNE
SMAP 3.6 14:10:36 10° NNE 14:15:16 64° ESE 14:19:59 10° S
ATLAS 5 CENTAUR R/B 2.1 14:15:49 26° S 14:15:49 26° S 14:17:36 10° SE
SL-08 RB Rocket 4.0 14:16:00 10° N 14:20:21 43° W 14:24:44 10° SSW
SJ-12 4.1 14:16:37 10° N 14:20:29 44° W 14:24:24 10° SSW
SL-08 R/B 4.4 14:14:25 10° SSW 14:20:39 72° W 14:26:53 10° N
Meteor 2-9 Rocket 4.3 14:15:00 10° NNW 14:20:49 67° WSW 14:26:47 10° S
Okean 1-7 3.2 14:21:40 10° S 14:26:07 74° ESE 14:30:27 10° NNE
Cosmos 1553 Rocket 3.9 14:21:37 10° N 14:27:45 90° W 14:33:58 10° SSE
Cosmos 1709 Rocket 4.4 14:22:13 10° S 14:28:34 67° ESE 14:34:46 10° NNE
Cosmos 2082 Rocket 2.8 14:23:19 10° SSW 14:28:57 57° SE 14:34:32 10° NE
Cosmos 1470 Rocket 4.3 14:27:31 10° N 14:31:58 58° E 14:36:27 10° SSE
Cosmos 1315 Rocket 4.4 14:29:37 10° S 14:33:30 38° ESE 14:37:20 10° NE
Cosmos 1726 3.7 14:35:03 16° SW 14:35:03 16° SW 14:36:27 10° SSW
Cosmos 2263 Rocket 3.6 14:34:57 17° WSW 14:37:39 23° SSW 14:42:07 10° SSE
SJ 16-02 4.1 14:36:04 10° S 14:37:57 12° SSE 14:39:51 10° ESE
Cosmos 2228 Rocket 3.7 14:34:52 10° SSW 14:39:08 36° W 14:43:21 10° NNW
Cosmos 2251 Rocket 3.5 14:33:53 10° SSW 14:39:21 77° WNW 14:44:43 10° NNE
Cosmos 2278 Rocket 4.1 14:35:15 10° N 14:40:15 33° ENE 14:45:18 10° SE
Cosmos 1400 Rocket 2.9 14:37:05 10° SSW 14:40:51 47° W 14:44:33 10° N
Cosmos 1707 Rocket 4.0 14:37:38 10° SSW 14:41:49 38° W 14:45:55 10° NNW
Cosmos 1805 Rocket 4.4 14:40:07 21° WNW 14:42:07 31° WSW 14:46:07 10° S
Okean 2 3.4 14:39:01 10° SSW 14:43:11 90° E 14:47:19 10° N
Cosmos 1666 Rocket 3.5 14:41:07 10° NNW 14:45:29 64° WSW 14:49:54 10° S
Cosmos 1975 2.8 14:41:45 10° NNW 14:45:44 61° WSW 14:49:46 10° S
Cosmos 1766 3.8 14:42:08 10° N 14:45:52 60° E 14:49:41 10° SSE
CZ-4B R/B 4.0 14:47:28 10° NNE 14:51:28 77° ESE 14:55:21 10° SSW
CZ-2C R/B 4.1 14:47:35 10° S 14:51:35 20° SW 14:53:59 16° W
SL-14 R/B 4.1 14:52:13 10° SSW 14:55:36 28° W 14:58:57 10° NNW
Timation 2 Rocket 4.0 14:51:02 10° NW 14:56:58 60° SW 15:03:02 10° SSE
Cosmos 1844 4.2 14:52:46 14° WNW 14:57:22 43° SW 15:02:50 10° SSE
CZ-2D R/B 4.0 14:54:15 10° NNW 14:57:35 30° W 15:00:56 10° SSW
NOSS 3-2 (A) 4.1 14:49:19 10° WNW 14:58:01 78° SW 15:05:18 10° SE
ARGOS 4.3 14:54:57 10° NW 14:58:59 21° W 15:03:05 10° SW
Cosmos 1933 Rocket 4.3 14:54:52 10° N 14:59:11 58° E 15:03:33 10° SSE
Cosmos 1340 2.4 14:59:00 10° NNW 15:02:30 65° WSW 15:06:03 10° S
ARIANE 5 R/B 3.9 15:00:15 10° NW 15:03:24 16° W 15:06:34 10° SW
Cosmos 1190 Rocket 4.0 15:01:53 10° SSW 15:07:12 76° WNW 15:12:26 10° NNE
Cosmos 1745 Rocket 4.1 15:00:57 10° SSW 15:07:13 55° W 15:13:21 10° NNW
Sich 1 4.5 15:08:53 13° W 15:11:23 19° WSW 15:14:38 10° SSW
Okean 3 4.2 15:09:12 10° SSW 15:12:58 30° W 15:16:42 10° NNW
DMSP B5D2-2 4.2 15:07:59 10° S 15:13:14 57° WSW 15:18:25 10° NW
CORIOLIS 4.4 15:08:20 10° N 15:13:40 51° W 15:19:01 10° SSW
USA 238 DEB 4.4 15:08:59 10° NNW 15:16:42 66° NE 15:23:53 10° SE
USA 238 4.4 15:09:06 10° NNW 15:16:50 66° NE 15:24:00 10° SE
CZ-4C R/B 3.1 15:11:02 11° W 15:18:08 48° SSW 15:24:03 10° SE
Helios 1B rocket 2.5 15:14:47 10° N 15:18:40 49° W 15:22:35 10° SSW
Cosmos 2227 Rocket 4.2 15:15:12 10° SW 15:18:42 16° S 15:22:13 10° SE
APEX 2.4 15:16:49 10° SSW 15:19:31 77° SE 15:22:22 10° NE
NOAA 6 4.3 15:14:32 10° NNE 15:19:46 79° ESE 15:25:03 10° SSW
Cosmos 1607 4.2 15:14:55 10° SW 15:20:46 48° WNW 15:26:39 10° NNE
Meteor 1-31 Rocket 2.8 15:18:01 10° N 15:21:42 53° W 15:25:25 10° SSW
Cosmos 1356 Rocket 4.2 15:19:49 10° SSW 15:23:37 31° W 15:27:20 10° NNW
Cosmos 1844 Rocket 3.6 15:19:05 10° W 15:24:02 30° SW 15:29:03 10° SSE
Cosmos 1633 Rocket 3.7 15:20:18 10° NW 15:24:26 36° WSW 15:28:38 10° S
Cosmos 1954 Rocket 4.0 15:19:36 10° SSW 15:24:50 73° WNW 15:30:01 10° NNE
Okean O Rocket 4.4 15:23:24 10° E 15:26:10 16° SE 15:28:55 10° SSE
SAR-Lupe-2 3.7 15:24:12 10° N 15:27:47 57° WNW 15:31:25 10° SSW
COSMOS 2406 3.2 15:22:20 10° SW 15:28:05 78° WNW 15:33:48 10° NNE
Aureole 2 4.3 15:25:19 10° NNW 15:28:15 73° ENE 15:31:19 10° SSE
ADEOS Rocket 4.1 15:20:44 10° NNE 15:28:27 70° ESE 15:36:12 10° SSW
SL-23 DEB 4.4 15:25:13 10° WNW 15:28:34 53° N 15:33:24 10° ENE
Cosmos 2242 Rocket 3.8 15:25:30 10° SSW 15:30:12 89° ESE 15:34:49 10° N
Resurs 01 Rocket 4.3 15:27:58 10° E 15:30:54 17° SE 15:33:50 10° SSE
CZ-2C R/B 3.3 15:28:51 10° NNW 15:32:08 32° W 15:35:26 10° SSW
YAOGAN 1 3.3 15:29:28 10° NNE 15:33:45 60° ESE 15:38:06 10° S
SeaSat 1 4.3 15:34:01 10° WNW 15:34:45 10° W 15:35:30 10° W
YAOGAN 11 4.1 15:30:23 10° SSE 15:34:46 75° WSW 15:39:07 10° NNW
ATLAS CENTAUR R/B 2.7 15:31:39 10° WSW 15:35:29 28° SSW 15:39:17 10° SE
SL-16 R/B 3.8 15:32:01 10° S 15:36:37 22° SW 15:41:10 10° W
Cosmos 1703 Rocket 4.1 15:33:06 10° SSW 15:37:17 37° W 15:41:25 10° NNW
CENTAUR R/B 3.0 15:32:40 10° W 15:39:55 51° SSW 15:45:49 10° SE
COSMOS 2455 4.3 15:35:17 10° SW 15:40:19 26° S 15:45:21 10° ESE
COSMO-SKYMED 1 3.1 15:35:54 10° SSE 15:40:22 68° ENE 15:44:45 10° N
S3M 4.2 15:34:09 10° NNW 15:40:26 55° WSW 15:46:51 10° S
Cosmos 407 Rocket 4.4 15:37:36 10° SW 15:41:56 27° W 15:46:16 10° NNW
Cosmos 1943 Rocket 3.3 15:37:22 10° N 15:42:49 52° ENE 15:48:16 10° SE
